owner,sensor,date,latitude,longitude,vertical_datum,sea_water_temperature,qcFlag
Shell,ioos:station:wmo:42902:1,2020-11-01T17:55:00Z,28.6103,-87.9793,12.1,25.9,11111222
Shell,ioos:station:wmo:42902:1,2020-11-01T18:14:00Z,28.6103,-87.9793,12.0,25.9,11111222
Shell,ioos:station:wmo:42902:1,2020-11-01T18:27:00Z,28.6105,-87.9796,11.9,26.0,11111222
Shell,ioos:station:wmo:42902:1,2020-11-01T18:37:00Z,28.6105,-87.9796,11.9,25.9,11111222
Shell,ioos:station:wmo:42902:1,2020-11-01T18:47:00Z,28.6105,-87.9796,11.9,26.0,11111222
Shell,ioos:station:wmo:42902:1,2020-11-01T18:57:00Z,28.6105,-87.9796,11.9,26.0,11111222
Shell,ioos:station:wmo:42902:1,2020-11-01T19:07:00Z,28.6105,-87.9796,11.9,26.0,11111222
Shell,ioos:station:wmo:42902:1,2020-11-01T19:17:00Z,28.6105,-87.9796,11.9,26.0,11111222
Shell,ioos:station:wmo:42902:1,2020-11-01T19:27:00Z,28.6104,-87.9796,11.7,26.0,11111222
Shell,ioos:station:wmo:42902:1,2020-11-01T19:37:00Z,28.6104,-87.9796,12.1,26.0,11111222
Shell,ioos:station:wmo:42902:1,2020-11-01T19:47:00Z,28.6105,-87.9796,12.2,26.0,11111222
Shell,ioos:station:wmo:42902:1,2020-11-01T19:57:00Z,28.6105,-87.9796,12.1,26.0,11111222
Shell,ioos:station:wmo:42902:1,2020-11-01T20:07:00Z,28.6104,-87.9796,12.0,26.0,11111222
Shell,ioos:station:wmo:42902:1,2020-11-01T20:17:00Z,28.6105,-87.9796,12.0,26.0,11111222
Shell,ioos:station:wmo:42902:1,2020-11-01T20:27:00Z,28.6105,-87.9796,12.1,26.0,11111222
Shell,ioos:station:wmo:42902:1,2020-11-01T20:37:00Z,28.6104,-87.9796,12.2,26.0,11111222
Shell,ioos:station:wmo:42902:1,2020-11-01T20:47:00Z,28.6105,-87.9796,12.2,25.9,11111222
Shell,ioos:station:wmo:42902:1,2020-11-01T20:57:00Z,28.6105,-87.9796,11.9,25.9,11111222
Shell,ioos:station:wmo:42902:1,2020-11-01T21:07:00Z,28.6105,-87.9796,11.8,25.9,11111222
Shell,ioos:station:wmo:42902:1,2020-11-01T21:17:00Z,28.6105,-87.9796,12.0,25.9,11111222
Shell,ioos:station:wmo:42902:1,2020-11-01T21:27:00Z,28.6104,-87.9796,12.0,25.9,11111222
Shell,ioos:station:wmo:42902:1,2020-11-01T21:37:00Z,28.6105,-87.9796,11.9,25.9,11111222
Shell,ioos:station:wmo:42902:1,2020-11-01T21:47:00Z,28.6105,-87.9796,12.0,25.9,11111222
Shell,ioos:station:wmo:42902:1,2020-11-01T21:57:00Z,28.6105,-87.9796,11.9,25.9,11111222
Shell,ioos:station:wmo:42902:1,2020-11-01T22:07:00Z,28.6105,-87.9796,12.0,25.9,11111222
Shell,ioos:station:wmo:42902:1,2020-11-01T22:17:00Z,28.6104,-87.9796,11.9,25.9,11111222
Shell,ioos:station:wmo:42902:1,2020-11-01T22:27:00Z,28.6104,-87.9796,11.9,25.9,11111222
Shell,ioos:station:wmo:42902:1,2020-11-01T22:37:00Z,28.6104,-87.9796,11.9,25.9,11111222
Shell,ioos:station:wmo:42902:1,2020-11-01T22:47:00Z,28.6104,-87.9796,11.9,25.9,11111222
Shell,ioos:station:wmo:42902:1,2020-11-01T22:57:00Z,28.6105,-87.9796,12.0,25.9,11111222
Shell,ioos:station:wmo:42902:1,2020-11-01T23:17:00Z,28.6105,-87.9796,12.0,25.8,11111222
Shell,ioos:station:wmo:42902:1,2020-11-01T23:27:00Z,28.6104,-87.9796,11.9,25.9,11111222
Shell,ioos:station:wmo:42902:1,2020-11-01T23:37:00Z,28.6105,-87.9796,12.0,25.9,11111222
Shell,ioos:station:wmo:42902:1,2020-11-01T23:52:00Z,28.6104,-87.9796,12.0,25.9,11111222
Shell,ioos:station:wmo:42902:1,2020-11-02T00:02:00Z,28.6104,-87.9796,12.1,25.8,11111222
Shell,ioos:station:wmo:42902:1,2020-11-02T00:12:00Z,28.6105,-87.9796,12.1,25.9,11111222
Shell,ioos:station:wmo:42902:1,2020-11-02T00:22:00Z,28.6105,-87.9796,12.0,25.8,11111222
Shell,ioos:station:wmo:42902:1,2020-11-02T00:32:00Z,28.6105,-87.9796,12.1,25.9,11111222
Shell,ioos:station:wmo:42902:1,2020-11-02T00:42:00Z,28.6105,-87.9796,12.0,25.9,11111222
Shell,ioos:station:wmo:42902:1,2020-11-02T00:52:00Z,28.6105,-87.9796,12.0,25.9,11111222
Shell,ioos:station:wmo:42902:1,2020-11-02T01:02:00Z,28.6105,-87.9796,12.0,25.9,11111222
Shell,ioos:station:wmo:42902:1,2020-11-02T01:12:00Z,28.6104,-87.9796,11.9,25.9,11111222
Shell,ioos:station:wmo:42902:1,2020-11-02T01:22:00Z,28.6105,-87.9796,11.9,25.9,11111222
Shell,ioos:station:wmo:42902:1,2020-11-02T01:32:00Z,28.6105,-87.9796,11.9,25.9,11111222
Shell,ioos:station:wmo:42902:1,2020-11-02T02:02:00Z,28.6105,-87.9796,11.8,25.9,11111222
Shell,ioos:station:wmo:42902:1,2020-11-02T02:12:00Z,28.6105,-87.9796,12.0,25.9,11111222
Shell,ioos:station:wmo:42902:1,2020-11-02T02:22:00Z,28.6105,-87.9796,12.0,25.9,11111222
Shell,ioos:station:wmo:42902:1,2020-11-02T02:32:00Z,28.6104,-87.9796,12.1,25.9,11111222
Shell,ioos:station:wmo:42902:1,2020-11-02T03:32:00Z,28.6104,-87.9796,12.1,25.8,11111222
Shell,ioos:station:wmo:42902:1,2020-11-02T03:42:00Z,28.6104,-87.9796,12.2,25.8,11111222
Shell,ioos:station:wmo:42902:1,2020-11-02T03:52:00Z,28.6105,-87.9796,12.2,25.8,11111222
Shell,ioos:station:wmo:42902:1,2020-11-02T04:02:00Z,28.6105,-87.9796,12.2,25.8,11111222
Shell,ioos:station:wmo:42902:1,2020-11-02T04:12:00Z,28.6105,-87.9796,12.2,25.8,11111222
Shell,ioos:station:wmo:42902:1,2020-11-02T04:22:00Z,28.6105,-87.9796,12.2,25.9,11111222
Shell,ioos:station:wmo:42902:1,2020-11-02T04:32:00Z,28.6105,-87.9796,12.1,25.9,11111222
Shell,ioos:station:wmo:42902:1,2020-11-02T04:42:00Z,28.6105,-87.9796,12.2,25.9,11111222
Shell,ioos:station:wmo:42902:1,2020-11-02T04:52:00Z,28.6105,-87.9796,12.1,25.9,11111222
Shell,ioos:station:wmo:42902:1,2020-11-02T05:02:00Z,28.6104,-87.9796,11.9,25.8,11111222
Shell,ioos:station:wmo:42902:1,2020-11-02T05:12:00Z,28.6105,-87.9796,12.0,25.8,11111222
Shell,ioos:station:wmo:42902:1,2020-11-02T05:22:00Z,28.6105,-87.9796,12.1,25.8,11111222
Shell,ioos:station:wmo:42902:1,2020-11-02T05:32:00Z,28.6104,-87.9796,12.0,25.8,11111222
Shell,ioos:station:wmo:42902:1,2020-11-02T05:42:00Z,28.6104,-87.9796,12.1,25.8,11111222
Shell,ioos:station:wmo:42902:1,2020-11-02T05:52:00Z,28.6104,-87.9796,12.1,25.8,11111222
Shell,ioos:station:wmo:42902:1,2020-11-02T06:03:00Z,28.6105,-87.9796,12.1,25.8,11111222
Shell,ioos:station:wmo:42902:1,2020-11-02T06:13:00Z,28.6105,-87.9796,12.1,25.8,11111222
Shell,ioos:station:wmo:42902:1,2020-11-02T06:23:00Z,28.6104,-87.9796,12.1,25.8,11111222
Shell,ioos:station:wmo:42902:1,2020-11-02T06:33:00Z,28.6105,-87.9796,12.1,25.8,11111222
Shell,ioos:station:wmo:42902:1,2020-11-02T06:43:00Z,28.6104,-87.9795,12.1,25.8,11111222
Shell,ioos:station:wmo:42902:1,2020-11-02T06:53:00Z,28.6104,-87.9796,12.1,25.8,11111222
Shell,ioos:station:wmo:42902:1,2020-11-02T07:03:00Z,28.6105,-87.9796,12.0,25.8,11111222
Shell,ioos:station:wmo:42902:1,2020-11-02T07:13:00Z,28.6104,-87.9796,12.0,25.8,11111222
Shell,ioos:station:wmo:42902:1,2020-11-02T07:23:00Z,28.6105,-87.9796,12.2,25.8,11111222
Shell,ioos:station:wmo:42902:1,2020-11-02T07:33:00Z,28.6104,-87.9796,12.2,25.8,11111222
Shell,ioos:station:wmo:42902:1,2020-11-02T07:43:00Z,28.6104,-87.9796,12.1,25.8,11111222
Shell,ioos:station:wmo:42902:1,2020-11-02T07:53:00Z,28.6105,-87.9796,12.2,25.8,11111222
Shell,ioos:station:wmo:42902:1,2020-11-02T08:03:00Z,28.6105,-87.9796,12.1,25.8,11111222
Shell,ioos:station:wmo:42902:1,2020-11-02T08:13:00Z,28.6105,-87.9796,12.1,25.8,11111222
Shell,ioos:station:wmo:42902:1,2020-11-02T08:23:00Z,28.6105,-87.9796,12.1,25.8,11111222
Shell,ioos:station:wmo:42902:1,2020-11-02T08:33:00Z,28.6104,-87.9795,12.1,25.8,11111222
Shell,ioos:station:wmo:42902:1,2020-11-02T08:43:00Z,28.6104,-87.9795,12.1,25.8,11111222
Shell,ioos:station:wmo:42902:1,2020-11-02T08:53:00Z,28.6104,-87.9795,12.1,25.8,11111222
Shell,ioos:station:wmo:42902:1,2020-11-02T09:03:00Z,28.6104,-87.9795,12.2,25.8,11111222
Shell,ioos:station:wmo:42902:1,2020-11-02T09:13:00Z,28.6104,-87.9795,12.2,25.8,11111222
Shell,ioos:station:wmo:42902:1,2020-11-02T09:23:00Z,28.6105,-87.9795,12.2,25.8,11111222
Shell,ioos:station:wmo:42902:1,2020-11-02T09:33:00Z,28.6104,-87.9795,12.2,25.8,11111222
Shell,ioos:station:wmo:42902:1,2020-11-02T09:43:00Z,28.6104,-87.9795,12.2,25.7,11111222
Shell,ioos:station:wmo:42902:1,2020-11-02T09:53:00Z,28.6104,-87.9795,12.1,25.7,11111222
Shell,ioos:station:wmo:42902:1,2020-11-02T10:03:00Z,28.6104,-87.9795,12.1,25.7,11111222
Shell,ioos:station:wmo:42902:1,2020-11-02T10:13:00Z,28.6104,-87.9795,12.1,25.7,11111222
Shell,ioos:station:wmo:42902:1,2020-11-02T10:23:00Z,28.6104,-87.9795,12.1,25.7,11111222
Shell,ioos:station:wmo:42902:1,2020-11-02T10:33:00Z,28.6104,-87.9795,12.0,25.7,11111222
Shell,ioos:station:wmo:42902:1,2020-11-02T10:43:00Z,28.6104,-87.9795,12.0,25.7,11111222
Shell,ioos:station:wmo:42902:1,2020-11-02T10:53:00Z,28.6104,-87.9795,12.1,25.7,11111222
Shell,ioos:station:wmo:42902:1,2020-11-02T11:03:00Z,28.6104,-87.9795,12.1,25.7,11111222
Shell,ioos:station:wmo:42902:1,2020-11-02T11:13:00Z,28.6104,-87.9795,12.0,25.7,11111222
Shell,ioos:station:wmo:42902:1,2020-11-02T11:23:00Z,28.6104,-87.9795,12.0,25.7,11111222
Shell,ioos:station:wmo:42902:1,2020-11-02T11:33:00Z,28.6104,-87.9795,12.0,25.7,11111222
Shell,ioos:station:wmo:42902:1,2020-11-02T11:43:00Z,28.6104,-87.9795,12.0,25.7,11111222
Shell,ioos:station:wmo:42902:1,2020-11-02T11:53:00Z,28.6104,-87.9795,12.0,25.7,11111222
Shell,ioos:station:wmo:42902:1,2020-11-02T12:03:00Z,28.6104,-87.9795,12.0,25.7,11111222
Shell,ioos:station:wmo:42902:1,2020-11-02T12:13:00Z,28.6103,-87.9794,12.0,25.7,11111222
Shell,ioos:station:wmo:42902:1,2020-11-02T12:23:00Z,28.6103,-87.9794,12.1,25.7,11111222
Shell,ioos:station:wmo:42902:1,2020-11-02T12:33:00Z,28.6103,-87.9794,12.1,25.7,11111222
Shell,ioos:station:wmo:42902:1,2020-11-02T12:43:00Z,28.6103,-87.9794,12.1,25.7,11111222
Shell,ioos:station:wmo:42902:1,2020-11-02T12:53:00Z,28.6103,-87.9794,12.1,25.7,11111222
Shell,ioos:station:wmo:42902:1,2020-11-02T13:03:00Z,28.6104,-87.9794,12.1,25.7,11111222
Shell,ioos:station:wmo:42902:1,2020-11-02T13:13:00Z,28.6104,-87.9794,12.1,25.7,11111222
Shell,ioos:station:wmo:42902:1,2020-11-02T13:24:00Z,28.6104,-87.9794,12.1,25.7,11111222
Shell,ioos:station:wmo:42902:1,2020-11-02T13:34:00Z,28.6103,-87.9794,12.1,25.7,11111222
Shell,ioos:station:wmo:42902:1,2020-11-02T13:44:00Z,28.6104,-87.9794,12.1,25.7,11111222
Shell,ioos:station:wmo:42902:1,2020-11-02T13:54:00Z,28.6104,-87.9794,12.1,25.6,11111222
Shell,ioos:station:wmo:42902:1,2020-11-02T14:04:00Z,28.6103,-87.9794,12.0,25.6,11111222
Shell,ioos:station:wmo:42902:1,2020-11-02T14:14:00Z,28.6103,-87.9794,12.0,25.6,11111222
Shell,ioos:station:wmo:42902:1,2020-11-02T14:24:00Z,28.6103,-87.9793,12.2,25.6,11111222
Shell,ioos:station:wmo:42902:1,2020-11-02T14:34:00Z,28.6103,-87.9793,12.2,25.6,11111222
Shell,ioos:station:wmo:42902:1,2020-11-02T14:44:00Z,28.6103,-87.9793,12.3,25.6,11111222
Shell,ioos:station:wmo:42902:1,2020-11-02T14:54:00Z,28.6103,-87.9793,12.3,25.6,11111222
Shell,ioos:station:wmo:42902:1,2020-11-02T15:04:00Z,28.6103,-87.9793,12.3,25.6,11111222
Shell,ioos:station:wmo:42902:1,2020-11-02T15:14:00Z,28.6103,-87.9793,12.2,25.6,11111222
Shell,ioos:station:wmo:42902:1,2020-11-02T15:24:00Z,28.6103,-87.9793,12.1,25.6,11111222
Shell,ioos:station:wmo:42902:1,2020-11-02T15:34:00Z,28.6103,-87.9793,12.1,25.6,11111222
Shell,ioos:station:wmo:42902:1,2020-11-02T15:44:00Z,28.6102,-87.9793,12.1,25.6,11111222
Shell,ioos:station:wmo:42902:1,2020-11-02T15:54:00Z,28.6103,-87.9793,12.0,25.6,11111222
Shell,ioos:station:wmo:42902:1,2020-11-02T16:04:00Z,28.6103,-87.9793,12.0,25.6,11111222
Shell,ioos:station:wmo:42902:1,2020-11-02T16:14:00Z,28.6103,-87.9793,12.0,25.6,11111222
Shell,ioos:station:wmo:42902:1,2020-11-02T16:24:00Z,28.6103,-87.9793,12.0,25.6,11111222
Shell,ioos:station:wmo:42902:1,2020-11-02T16:34:00Z,28.6103,-87.9793,12.0,25.6,11111222
Shell,ioos:station:wmo:42902:1,2020-11-02T16:44:00Z,28.6103,-87.9793,12.0,25.7,11111222
Shell,ioos:station:wmo:42902:1,2020-11-02T16:54:00Z,28.6103,-87.9793,12.0,25.7,11111222
Shell,ioos:station:wmo:42902:1,2020-11-02T17:04:00Z,28.6103,-87.9793,12.0,25.7,11111222
Shell,ioos:station:wmo:42902:1,2020-11-02T17:14:00Z,28.6103,-87.9793,11.9,25.7,11111222
Shell,ioos:station:wmo:42902:1,2020-11-02T17:24:00Z,28.6103,-87.9793,11.9,25.6,11111222
Shell,ioos:station:wmo:42902:1,2020-11-02T17:34:00Z,28.6103,-87.9793,11.9,25.6,11111222
Shell,ioos:station:wmo:42902:1,2020-11-02T17:44:00Z,28.6103,-87.9793,12.0,25.7,11111222
Shell,ioos:station:wmo:42902:1,2020-11-02T17:54:00Z,28.6103,-87.9793,11.9,25.7,11111222
Shell,ioos:station:wmo:42902:1,2020-11-02T18:04:00Z,28.6103,-87.9793,11.9,25.7,11111222
Shell,ioos:station:wmo:42902:1,2020-11-02T18:14:00Z,28.6103,-87.9793,12.0,25.7,11111222
Shell,ioos:station:wmo:42902:1,2020-11-02T18:24:00Z,28.6103,-87.9793,11.9,25.7,11111222
Shell,ioos:station:wmo:42902:1,2020-11-02T18:34:00Z,28.6103,-87.9793,11.8,25.7,11111222
Shell,ioos:station:wmo:42902:1,2020-11-02T18:44:00Z,28.6103,-87.9793,11.8,25.7,11111222
Shell,ioos:station:wmo:42902:1,2020-11-02T18:54:00Z,28.6103,-87.9793,12.1,25.7,11111222
Shell,ioos:station:wmo:42902:1,2020-11-02T19:04:00Z,28.6103,-87.9793,12.1,25.7,11111222
Shell,ioos:station:wmo:42902:1,2020-11-02T19:14:00Z,28.6103,-87.9793,12.1,25.7,11111222
Shell,ioos:station:wmo:42902:1,2020-11-02T19:24:00Z,28.6103,-87.9793,12.2,25.7,11111222
Shell,ioos:station:wmo:42902:1,2020-11-02T19:34:00Z,28.6103,-87.9793,12.2,25.7,11111222
Shell,ioos:station:wmo:42902:1,2020-11-02T19:44:00Z,28.6103,-87.9793,12.1,25.7,11111222
Shell,ioos:station:wmo:42902:1,2020-11-02T19:54:00Z,28.6103,-87.9793,12.1,25.7,11111222
Shell,ioos:station:wmo:42902:1,2020-11-02T20:04:00Z,28.6103,-87.9793,12.2,25.7,11111222
Shell,ioos:station:wmo:42902:1,2020-11-02T20:14:00Z,28.6103,-87.9793,12.1,25.7,11111222
Shell,ioos:station:wmo:42902:1,2020-11-02T20:24:00Z,28.6103,-87.9793,12.1,25.7,11111222
Shell,ioos:station:wmo:42902:1,2020-11-02T20:34:00Z,28.6103,-87.9793,12.1,25.7,11111222
Shell,ioos:station:wmo:42902:1,2020-11-02T20:45:00Z,28.6103,-87.9793,12.1,25.7,11111222
Shell,ioos:station:wmo:42902:1,2020-11-02T20:55:00Z,28.6103,-87.9793,12.1,25.7,11111222
Shell,ioos:station:wmo:42902:1,2020-11-02T21:15:00Z,28.6103,-87.9793,12.1,25.7,11111222
Shell,ioos:station:wmo:42902:1,2020-11-02T21:25:00Z,28.6103,-87.9793,12.1,25.7,11111222
Shell,ioos:station:wmo:42902:1,2020-11-02T21:35:00Z,28.6103,-87.9793,12.1,25.7,11111222
Shell,ioos:station:wmo:42902:1,2020-11-02T21:45:00Z,28.6103,-87.9793,12.1,25.7,11111222
Shell,ioos:station:wmo:42902:1,2020-11-02T21:55:00Z,28.6103,-87.9793,12.1,25.7,11111222
Shell,ioos:station:wmo:42902:1,2020-11-02T22:05:00Z,28.6103,-87.9793,12.1,25.7,11111222
Shell,ioos:station:wmo:42902:1,2020-11-02T22:15:00Z,28.6103,-87.9793,12.1,25.7,11111222
Shell,ioos:station:wmo:42902:1,2020-11-02T22:25:00Z,28.6103,-87.9793,12.1,25.7,11111222
Shell,ioos:station:wmo:42902:1,2020-11-02T22:35:00Z,28.6103,-87.9793,12.1,25.7,11111222
Shell,ioos:station:wmo:42902:1,2020-11-02T22:45:00Z,28.6103,-87.9793,12.1,25.7,11111222
Shell,ioos:station:wmo:42902:1,2020-11-02T22:55:00Z,28.6103,-87.9793,12.1,25.7,11111222
Shell,ioos:station:wmo:42902:1,2020-11-02T23:05:00Z,28.6103,-87.9793,12.1,25.7,11111222
Shell,ioos:station:wmo:42902:1,2020-11-02T23:15:00Z,28.6103,-87.9793,12.0,25.7,11111222
Shell,ioos:station:wmo:42902:1,2020-11-02T23:25:00Z,28.6103,-87.9793,12.0,25.7,11111222
Shell,ioos:station:wmo:42902:1,2020-11-02T23:35:00Z,28.6103,-87.9793,12.0,25.7,11111222
Shell,ioos:station:wmo:42902:1,2020-11-02T23:45:00Z,28.6103,-87.9793,12.0,25.7,11111222
Shell,ioos:station:wmo:42902:1,2020-11-02T23:55:00Z,28.6103,-87.9793,12.0,25.7,11111222
Shell,ioos:station:wmo:42902:1,2020-11-03T00:05:00Z,28.6103,-87.9793,12.0,25.7,11111222
Shell,ioos:station:wmo:42902:1,2020-11-03T00:15:00Z,28.6103,-87.9793,12.0,25.7,11111222
Shell,ioos:station:wmo:42902:1,2020-11-03T00:25:00Z,28.6103,-87.9793,12.0,25.7,11111222
Shell,ioos:station:wmo:42902:1,2020-11-03T00:35:00Z,28.6103,-87.9793,12.0,25.7,11111222
Shell,ioos:station:wmo:42902:1,2020-11-03T00:45:00Z,28.6103,-87.9793,12.0,25.7,11111222
Shell,ioos:station:wmo:42902:1,2020-11-03T00:55:00Z,28.6103,-87.9793,12.0,25.7,11111222
Shell,ioos:station:wmo:42902:1,2020-11-03T01:05:00Z,28.6103,-87.9793,12.0,25.7,11111222
Shell,ioos:station:wmo:42902:1,2020-11-03T01:15:00Z,28.6103,-87.9793,12.0,25.7,11111222
Shell,ioos:station:wmo:42902:1,2020-11-03T01:25:00Z,28.6103,-87.9793,12.0,25.7,11111222
Shell,ioos:station:wmo:42902:1,2020-11-03T01:35:00Z,28.6103,-87.9793,12.0,25.7,11111222
Shell,ioos:station:wmo:42902:1,2020-11-03T01:45:00Z,28.6103,-87.9793,12.0,25.7,11111222
Shell,ioos:station:wmo:42902:1,2020-11-03T01:55:00Z,28.6103,-87.9793,12.0,25.7,11111222
Shell,ioos:station:wmo:42902:1,2020-11-03T02:05:00Z,28.6103,-87.9793,12.0,25.7,11111222
Shell,ioos:station:wmo:42902:1,2020-11-03T02:15:00Z,28.6103,-87.9793,12.0,25.7,11111222
Shell,ioos:station:wmo:42902:1,2020-11-03T02:25:00Z,28.6103,-87.9793,12.0,25.7,11111222
Shell,ioos:station:wmo:42902:1,2020-11-03T02:35:00Z,28.6103,-87.9793,12.0,25.7,11111222
Shell,ioos:station:wmo:42902:1,2020-11-03T02:45:00Z,28.6103,-87.9793,12.0,25.7,11111222
Shell,ioos:station:wmo:42902:1,2020-11-03T02:55:00Z,28.6103,-87.9793,12.0,25.7,11111222
Shell,ioos:station:wmo:42902:1,2020-11-03T03:05:00Z,28.6103,-87.9793,12.0,25.7,11111222
Shell,ioos:station:wmo:42902:1,2020-11-03T03:15:00Z,28.6103,-87.9793,12.0,25.7,11111222
Shell,ioos:station:wmo:42902:1,2020-11-03T03:25:00Z,28.6103,-87.9793,12.0,25.7,11111222
Shell,ioos:station:wmo:42902:1,2020-11-03T03:35:00Z,28.6103,-87.9793,12.0,25.7,11111222
Shell,ioos:station:wmo:42902:1,2020-11-03T03:45:00Z,28.6103,-87.9793,12.0,25.7,11111222
Shell,ioos:station:wmo:42902:1,2020-11-03T03:55:00Z,28.6103,-87.9793,12.0,25.7,11111222
Shell,ioos:station:wmo:42902:1,2020-11-03T04:06:00Z,28.6103,-87.9793,12.0,25.6,11111222
Shell,ioos:station:wmo:42902:1,2020-11-03T04:16:00Z,28.6103,-87.9793,12.0,25.6,11111222
Shell,ioos:station:wmo:42902:1,2020-11-03T04:26:00Z,28.6103,-87.9793,11.9,25.6,11111222
Shell,ioos:station:wmo:42902:1,2020-11-03T04:36:00Z,28.6103,-87.9793,11.9,25.6,11111222
Shell,ioos:station:wmo:42902:1,2020-11-03T04:46:00Z,28.6103,-87.9793,11.9,25.6,11111222
Shell,ioos:station:wmo:42902:1,2020-11-03T04:56:00Z,28.6103,-87.9793,11.9,25.6,11111222
Shell,ioos:station:wmo:42902:1,2020-11-03T05:06:00Z,28.6103,-87.9793,11.9,25.6,11111222
Shell,ioos:station:wmo:42902:1,2020-11-03T05:16:00Z,28.6103,-87.9793,11.9,25.6,11111222
Shell,ioos:station:wmo:42902:1,2020-11-03T05:26:00Z,28.6103,-87.9793,11.8,25.6,11111222
Shell,ioos:station:wmo:42902:1,2020-11-03T05:36:00Z,28.6103,-87.9793,11.9,25.6,11111222
Shell,ioos:station:wmo:42902:1,2020-11-03T05:46:00Z,28.6103,-87.9793,11.9,25.6,11111222
Shell,ioos:station:wmo:42902:1,2020-11-03T05:56:00Z,28.6103,-87.9793,11.9,25.6,11111222
Shell,ioos:station:wmo:42902:1,2020-11-03T06:06:00Z,28.6103,-87.9793,12.0,25.6,11111222
Shell,ioos:station:wmo:42902:1,2020-11-03T06:16:00Z,28.6103,-87.9793,12.1,25.6,11111222
Shell,ioos:station:wmo:42902:1,2020-11-03T06:26:00Z,28.6103,-87.9793,12.1,25.6,11111222
Shell,ioos:station:wmo:42902:1,2020-11-03T06:36:00Z,28.6103,-87.9793,12.2,25.6,11111222
Shell,ioos:station:wmo:42902:1,2020-11-03T06:46:00Z,28.6103,-87.9793,12.2,25.6,11111222
Shell,ioos:station:wmo:42902:1,2020-11-03T06:56:00Z,28.6103,-87.9793,12.2,25.6,11111222
Shell,ioos:station:wmo:42902:1,2020-11-03T07:06:00Z,28.6103,-87.9793,12.2,25.6,11111222
Shell,ioos:station:wmo:42902:1,2020-11-03T07:16:00Z,28.6103,-87.9793,12.2,25.6,11111222
Shell,ioos:station:wmo:42902:1,2020-11-03T07:26:00Z,28.6103,-87.9793,12.1,25.6,11111222
Shell,ioos:station:wmo:42902:1,2020-11-03T07:36:00Z,28.6103,-87.9793,12.1,25.6,11111222
Shell,ioos:station:wmo:42902:1,2020-11-03T07:46:00Z,28.6103,-87.9793,12.1,25.6,11111222
Shell,ioos:station:wmo:42902:1,2020-11-03T07:56:00Z,28.6103,-87.9793,12.1,25.6,11111222
Shell,ioos:station:wmo:42902:1,2020-11-03T08:06:00Z,28.6103,-87.9793,12.1,25.6,11111222
Shell,ioos:station:wmo:42902:1,2020-11-03T08:16:00Z,28.6103,-87.9793,12.1,25.6,11111222
Shell,ioos:station:wmo:42902:1,2020-11-03T08:26:00Z,28.6103,-87.9793,12.1,25.6,11111222
Shell,ioos:station:wmo:42902:1,2020-11-03T08:36:00Z,28.6103,-87.9793,12.1,25.6,11111222
Shell,ioos:station:wmo:42902:1,2020-11-03T08:46:00Z,28.6103,-87.9793,12.1,25.6,11111222
Shell,ioos:station:wmo:42902:1,2020-11-03T08:56:00Z,28.6103,-87.9793,12.1,25.5,11111222
Shell,ioos:station:wmo:42902:1,2020-11-03T09:06:00Z,28.6103,-87.9793,12.1,25.6,11111222
Shell,ioos:station:wmo:42902:1,2020-11-03T09:16:00Z,28.6103,-87.9793,12.1,25.5,11111222
Shell,ioos:station:wmo:42902:1,2020-11-03T09:26:00Z,28.6103,-87.9793,12.1,25.6,11111222
Shell,ioos:station:wmo:42902:1,2020-11-03T09:36:00Z,28.6103,-87.9793,12.1,25.6,11111222
Shell,ioos:station:wmo:42902:1,2020-11-03T09:46:00Z,28.6103,-87.9793,12.1,25.6,11111222
Shell,ioos:station:wmo:42902:1,2020-11-03T09:56:00Z,28.6103,-87.9793,12.1,25.6,11111222
Shell,ioos:station:wmo:42902:1,2020-11-03T10:06:00Z,28.6102,-87.9792,12.1,25.6,11111222
Shell,ioos:station:wmo:42902:1,2020-11-03T10:16:00Z,28.6100,-87.9791,12.2,25.6,11111222
Shell,ioos:station:wmo:42902:1,2020-11-03T10:26:00Z,28.6100,-87.9791,12.1,25.6,11111222
Shell,ioos:station:wmo:42902:1,2020-11-03T10:36:00Z,28.6100,-87.9791,12.0,25.5,11111222
Shell,ioos:station:wmo:42902:1,2020-11-03T10:46:00Z,28.6100,-87.9791,12.0,25.6,11111222
Shell,ioos:station:wmo:42902:1,2020-11-03T10:56:00Z,28.6100,-87.9790,12.0,25.5,11111222
Shell,ioos:station:wmo:42902:1,2020-11-03T11:06:00Z,28.6100,-87.9791,12.0,25.5,11111222
Shell,ioos:station:wmo:42902:1,2020-11-03T11:16:00Z,28.6100,-87.9791,12.0,25.5,11111222
Shell,ioos:station:wmo:42902:1,2020-11-03T11:27:00Z,28.6101,-87.9791,12.0,25.5,11111222
Shell,ioos:station:wmo:42902:1,2020-11-03T11:37:00Z,28.6100,-87.9791,12.0,25.5,11111222
Shell,ioos:station:wmo:42902:1,2020-11-03T11:47:00Z,28.6100,-87.9791,12.0,25.5,11111222
Shell,ioos:station:wmo:42902:1,2020-11-03T11:57:00Z,28.6100,-87.9791,12.1,25.5,11111222
Shell,ioos:station:wmo:42902:1,2020-11-03T12:07:00Z,28.6100,-87.9791,12.0,25.5,11111222
Shell,ioos:station:wmo:42902:1,2020-11-03T12:17:00Z,28.6100,-87.9791,12.0,25.5,11111222
Shell,ioos:station:wmo:42902:1,2020-11-03T12:27:00Z,28.6100,-87.9791,12.0,25.5,11111222
Shell,ioos:station:wmo:42902:1,2020-11-03T12:37:00Z,28.6100,-87.9791,12.0,25.5,11111222
Shell,ioos:station:wmo:42902:1,2020-11-03T12:47:00Z,28.6100,-87.9791,12.0,25.5,11111222
Shell,ioos:station:wmo:42902:1,2020-11-03T12:57:00Z,28.6101,-87.9791,12.0,25.5,11111222
Shell,ioos:station:wmo:42902:1,2020-11-03T13:07:00Z,28.6101,-87.9791,12.1,25.5,11111222
Shell,ioos:station:wmo:42902:1,2020-11-03T13:17:00Z,28.6100,-87.9791,12.0,25.5,11111222
Shell,ioos:station:wmo:42902:1,2020-11-03T13:27:00Z,28.6100,-87.9791,12.1,25.5,11111222
Shell,ioos:station:wmo:42902:1,2020-11-03T13:37:00Z,28.6100,-87.9791,12.0,25.5,11111222
Shell,ioos:station:wmo:42902:1,2020-11-03T13:47:00Z,28.6100,-87.9791,12.1,25.5,11111222
Shell,ioos:station:wmo:42902:1,2020-11-03T13:57:00Z,28.6105,-87.9803,12.0,25.5,11111222
Shell,ioos:station:wmo:42902:1,2020-11-03T14:07:00Z,28.6096,-87.9810,12.0,25.5,11111222
Shell,ioos:station:wmo:42902:1,2020-11-03T14:17:00Z,28.6096,-87.9810,11.9,25.5,11111222
Shell,ioos:station:wmo:42902:1,2020-11-03T14:27:00Z,28.6096,-87.9810,11.9,25.5,11111222
Shell,ioos:station:wmo:42902:1,2020-11-03T14:37:00Z,28.6096,-87.9810,12.2,25.5,11111222
Shell,ioos:station:wmo:42902:1,2020-11-03T14:47:00Z,28.6096,-87.9810,12.2,25.5,11111222
Shell,ioos:station:wmo:42902:1,2020-11-03T14:57:00Z,28.6096,-87.9810,12.0,25.5,11111222
Shell,ioos:station:wmo:42902:1,2020-11-03T15:07:00Z,28.6096,-87.9810,12.0,25.5,11111222
Shell,ioos:station:wmo:42902:1,2020-11-03T15:17:00Z,28.6096,-87.9810,11.9,25.5,11111222
Shell,ioos:station:wmo:42902:1,2020-11-03T15:27:00Z,28.6096,-87.9810,12.1,25.5,11111222
Shell,ioos:station:wmo:42902:1,2020-11-03T15:37:00Z,28.6096,-87.9810,12.1,25.5,11111222
Shell,ioos:station:wmo:42902:1,2020-11-03T15:47:00Z,28.6097,-87.9810,12.0,25.5,11111222
Shell,ioos:station:wmo:42902:1,2020-11-03T15:57:00Z,28.6096,-87.9810,12.1,25.5,11111222
Shell,ioos:station:wmo:42902:1,2020-11-03T16:07:00Z,28.6096,-87.9810,12.1,25.5,11111222
Shell,ioos:station:wmo:42902:1,2020-11-03T16:17:00Z,28.6096,-87.9810,12.1,25.5,11111222